星链-30949 (STARLINK-30949 )

导读 | 星芒AI

STARLINK-30949 是 SpaceX Starlink 卫星互联网项目中的第 30949 颗卫星。该卫星属于 Starlink 群体的一部分,旨在为全球用户提供高速、低延迟的宽带互联网服务。它运行在近地轨道,配备先进通信设备,支持全球范围内的网络连接,尤其在偏远地区发挥重要作用。该卫星的发射和运行有助于扩展 Starlink 的覆盖范围,提升网络稳定性和服务质量。

基本信息
目录编号:
58415
目录名称:
STARLINK-30949
国际标识:
2023-180P
轨道中心:
EARTH
卫星名称:
星链-30949
卫星全名:
星链-30949 (STARLINK-30949 )
卫星状态:
在轨 (已飞行758 天)
发射日期:
2023-11-22 UTC
国别 :
美国 (US)
星等 :
--
轨道信息
数据来源 国际轨道数据
星历时间: 2025-12-19T13:58:01+0800
14小时前
查看轨道信息
半长轴: 6937.213km
偏心率: 0.0001317
轨道倾角: 43.003°
近地点辐角 265.034°
升交点赤经 133.182°
平近点角 95.035°
近地点: 558.162km
远地点: 559.99km
周期: 95.838分钟
每日圈数: 15.025374
详细信息
固有亮度:
5
最大亮度:
0.3
卫星平台:
Starlink v2.0 mini
覆盖范围:
全球
运营商:
太空探索技术公司
运营商所在国:
美国
制造商(研发单位):
太空探索技术公司
制造商所在国:
美国
使用方式:
暂无
卫星简介
星链(Starlink)计划是由太空探索技术公司(SpaceX)提出的一个巨型低轨卫星互联网星座项目,计划在2019年至2024年间在太空搭建由约1.2万颗卫星组成的“星链”网络,其中1584颗将部署在地球上空550千米处的近地轨道,并从2020年开始工作。该卫星仍在工作。
2D轨道图
3D轨道图
轨道高度分析图
轨道倾角分析图
轨道综合分析图
查看轨道综合分析图